Regional Weather Roundup
Issued by NWS

Home | Current Version | Previous Version | Graphics & Text | Print | Product List | Glossary Off
Versions: 1 2 3 4 5 6 7 8 9 10 11 12 13 14 15 16 17 18 19 20 21 22 23 24 25 26 27 28 29 30 31 32 33 34 35 36 37 38 39 40 41 42 43 44 45 46 47 48 49 50

000
ASUS43 KMPX 271210
RWRMN
WEATHER ROUNDUP FOR MINNESOTA
NATIONAL WEATHER SERVICE TWIN CITIES/CHANHASSEN MN
700 AM CDT THU APR 27 2017


NOTE: "FAIR" INDICATES FEW OR NO CLOUDS BELOW 12,000 FEET WITH NO
SIGNIFICANT WEATHER AND/OR OBSTRUCTIONS TO VISIBILITY. N/A MEANS
CURRENT SKY AND/OR WEATHER CONDITIONS ARE NOT AVAILABLE.

MNZ060>063-068>070-271300-
   Twin Cities Metro

CITY           SKY/WX    TMP DP  RH WIND       PRES   REMARKS
TWIN CITIES    FLURRIES  34  30  85 NW14      29.52F WCI  25
6HR MIN TEMP:  33; 6HR MAX TEMP:  36; 6HR PCP: TRACE;

ST PAUL        LGT SNOW  33  32  96 N10       29.53S FOG     WCI  25
CRYSTAL        LGT SNOW  32  28  85 NW13      29.52S FOG     WCI  22
BLAINE         CLOUDY    34  34 100 N10       29.52  WCI  26
LAKEVILLE      LGT SNOW  32  32 100 NW10      29.52R WCI  24
EDEN PRAIRIE   CLOUDY    34  30  85 NW12      29.52S WCI  25
6HR MIN TEMP:  34; 6HR MAX TEMP:  36; 6HR PCP:  0.05;

SOUTH ST PAUL  CLOUDY    33  33  98 N7        29.52S WCI  27
LAKE ELMO      LGT SNOW  32  32 100 N7        29.52S WCI  26
$$
MNZ001>005-007-008-013>017-022>024-027-028-271300-
   Northwest Minnesota

CITY           SKY/WX    TMP DP  RH WIND       PRES   REMARKS
BEMIDJI        CLOUDY    21  15  78 N10       29.62F WCI  10
HALLOCK        CLOUDY    25  21  86 CALM      29.74S
ROSEAU         CLOUDY    25  19  80 N10       29.70S WCI  15
WARROAD        LGT SNOW  25  19  80 N8        29.70R WCI  16
THIEF RVR FALL CLOUDY    24  21  88 N8        29.70R WCI  15
CROOKSTON      CLOUDY    27  25  93 N9        29.72S WCI  17
FOSSTON        CLOUDY    21  18  86 N13       29.67R WCI   9
DETROIT LAKES  CLOUDY    27  23  86 N7        29.63S WCI  19
MOORHEAD       CLOUDY    25  21  86 N8        29.69R WCI  16
PARK RAPIDS    CLOUDY    24  17  74 N10       29.58F WCI  14
MAHNOMEN       FLURRIES  22  19  89 N5        29.66R WCI  16
$$
MNZ006-009>011-018-025>026-271300-
   North Central Minnesota

CITY           SKY/WX    TMP DP  RH WIND       PRES   REMARKS
BAUDETTE       LGT SNOW  22  16  78 NE7       29.67R WCI  13
FLAG ISLAND    LGT SNOW  25  19  80 NE14      29.70R VSB 1   WCI  13
INTL FALLS     CLOUDY    21  12  68 NE14G23   29.63S WCI   8
6HR MIN TEMP:  21; 6HR MAX TEMP:  23;

WASKISH        CLOUDY    21  19  93 N6        29.65S WCI  14
BIG FORK       CLOUDY    21  18  86 N5        29.59F WCI  15
LONGVILLE      CLOUDY    23  18  80 N5        29.58F WCI  17
GRAND RAPIDS   FLURRIES  21  17  84 N10       29.58F WCI  10
CRANE LAKE     CLOUDY    19  14  79 N8        29.62S WCI   9
ORR            CLOUDY    19  12  73 N6        29.56F WCI  11
COOK           LGT SNOW  19  18  93 N6        29.57F WCI  11
WALKER         CLOUDY    22  16  77 N6        29.59F WCI  14
$$
MNZ012-019>021-037-271300-
   Northeast Minnesota

CITY           SKY/WX    TMP DP  RH WIND       PRES   REMARKS
DULUTH         CLOUDY    23  20  88 N12       29.50F WCI  12
6HR MIN TEMP:  23; 6HR MAX TEMP:  25; 6HR PCP: TRACE;

ELY            FLURRIES  18  18 100 N5        29.54F WCI  11
HIBBING        CLOUDY    20  17  88 N9        29.55F WCI   9
EVELETH        CLOUDY    22  18  84 N7        29.55F WCI  14
DULUTH HARBOR  CLOUDY    28  23  80 N12       29.56F WCI  18
TWO HARBORS    CLOUDY    27  19  74 N6        29.50F WCI  20
SILVER BAY     CLOUDY    23  21  93 N5        29.50F WCI  17
GRAND MARAIS     N/A     23  18  81 VRB7G21   29.53F WCI  15
G MARAIS ARPRT CLOUDY    16  12  86 CALM      29.46F
$$
MNZ029>031-032-039>041-046>048-054>057-064-271300-
   West Central Minnesota

CITY           SKY/WX    TMP DP  RH WIND       PRES   REMARKS
FERGUS FALLS   CLOUDY    27  21  80 N10       29.64S WCI  17
WHEATON        CLOUDY    27  25  93 NW14G21   29.67S WCI  15
MORRIS         CLOUDY    28  27  93 NW16      29.60S WCI  17
ALEXANDRIA     CLOUDY    27  22  81 N14       29.59S WCI  16
ELBOW LAKE     CLOUDY    28  23  82 N13G18    29.61F WCI  17
WADENA         LGT SNOW  23  21  93 N8        29.58F WCI  14
GLENWOOD       CLOUDY    27  25  93 N7        29.58S WCI  19
APPLETON       CLOUDY    30  27  86 NW14      29.62S WCI  20
BENSON         CLOUDY    32  25  74 N9        29.62R WCI  24
ORTONVILLE     CLOUDY    27  23  86 NW13G18   29.64R WCI  16
MADISON        CLOUDY    30  27  86 NW13G18   29.64R WCI  20
WILLMAR        CLOUDY    32  28  86 NW9       29.59R FOG     WCI  24
$$
MNZ033>034-036-042>043-049>051-058-059-271300-
   Central Minnesota

CITY           SKY/WX    TMP DP  RH WIND       PRES   REMARKS
ST CLOUD       CLOUDY    29  27  92 NW8       29.55R WCI  21
6HR MIN TEMP:  29; 6HR MAX TEMP:  31;

SAUK CENTRE    CLOUDY    27  24  86 NW12      29.58R WCI  17
PAYNESVILLE    CLOUDY    30  29  99 NW10      29.57S WCI  21
AITKIN         LGT SNOW  27  21  80 N8        29.54F WCI  18
PINE RIVER     CLOUDY    25  19  80 N8        29.62R WCI  16
BRAINERD       CLOUDY    25  22  88 N12       29.56F FOG     WCI  14
STAPLES        CLOUDY    23  21  93 N7        29.58R WCI  15
LONG PRAIRIE   CLOUDY    27  23  86 CALM      29.58R
LITTLE FALLS   CLOUDY    28  23  80 NW6       29.57S WCI  22
LITCHFIELD     CLOUDY    30  28  93 N10       29.56S WCI  21
BUFFALO        CLOUDY    31  29  92 NW9       29.55S WCI  23
MAPLE LAKE     CLOUDY    32  30  94 NW10      29.55S WCI  23
HUTCHINSON     CLOUDY    32  30  92 NW14      29.56S WCI  22
$$
MNZ037-044-045-052-053-271300-
   East Central Minnesota

CITY           SKY/WX    TMP DP  RH WIND       PRES   REMARKS
PRINCETON      CLOUDY    30  28  93 NW7       29.55R WCI  23
MORA           CLOUDY    27  23  86 N6        29.56S WCI  20
CAMBRIDGE      CLOUDY    30  27  86 NW8       29.52S WCI  23
RUSH CITY      CLOUDY    28  24  85 N9        29.54S WCI  20
MOOSE LAKE     CLOUDY    27  21  80 N9        29.53S WCI  17
HINCKLEY       CLOUDY    28  27  93 N8        29.54S WCI  20
CLOQUET        CLOUDY    23  19  86 N9        29.52F WCI  13
MCGREGOR       CLOUDY    27  23  86 N8        29.55F WCI  18
$$
MNZ071>073-080-081-089-090-097-098-271300-
   Southwest Minnesota

CITY           SKY/WX    TMP DP  RH WIND       PRES   REMARKS
MONTEVIDEO     CLOUDY    28  28 100 N12       29.62R FOG     WCI  18
GRANITE FALLS  CLOUDY    31  27  87 W16G24    29.64R WCI  19
CANBY          CLOUDY    29  24  81 W14G23    29.65R WCI  19
MARSHALL       CLOUDY    28  24  85 NW16      29.63R WCI  16
REDWOOD FALLS  LGT SNOW  30  27  88 NW12G23   29.59R FOG     WCI  20
OLIVIA         CLOUDY    32  30  93 NW14G21   29.58S WCI  22
PIPESTONE      CLOUDY    28  21  74 N17G25    29.61R WCI  16
WINDOM         MOCLDY    28  28 100 NW17      29.59S WCI  16
WORTHINGTON    CLOUDY    28  25  88 NW17G23   29.61S WCI  16
JACKSON        CLOUDY    30  28  93 NW14G20   29.59S WCI  20
TRACY          CLOUDY    29  26  89 NW18      29.62R WCI  17
SLAYTON        CLOUDY    27  23  85 NW21      29.61R WCI  13
$$
MNZ065>067-074>077-082>085-091>093-271300-
   South Central Minnesota

CITY           SKY/WX    TMP DP  RH WIND       PRES   REMARKS
MANKATO        CLOUDY    32  30  92 NW14      29.56S WCI  22
NEW ULM        CLOUDY    30  28  93 NW15      29.57S WCI  19
ST JAMES       CLOUDY    30  30 100 W16       29.58S WCI  19
FAIRMONT       CLOUDY    30  28  92 NW16      29.58S WCI  19
GLENCOE        CLOUDY    32  32  99 NW8       29.55S WCI  25
FARIBAULT      CLOUDY    34  30  86 NW9       29.53R WCI  26
OWATONNA       CLOUDY    34  30  86 NW12      29.52S WCI  25
WASECA         CLOUDY    32  30  93 NW15      29.54F FOG     WCI  22
ALBERT LEA     CLOUDY    30  28  93 NW10G21   29.52R WCI  21
$$
MNZ078>079-086>088-094>096-271300-
   Southeast Minnesota

CITY           SKY/WX    TMP DP  RH WIND       PRES   REMARKS
ROCHESTER      LGT SNOW  33  33 100 NW13      29.48S FOG     WCI  24
6HR MIN TEMP:  33; 6HR MAX TEMP:  36; 6HR PCP: TRACE;

RED WING       CLOUDY    36  28  75 N5        29.50S
STANTON        FLURRIES  35  32  90 NW10      29.50S WCI  27
DODGE CENTER   CLOUDY    32  30  93 NW14      29.49S WCI  22
WINONA         CLOUDY    36  32  87 N7G16     29.48S
AUSTIN         LGT SNOW  34  30  86 NW14      29.51R WCI  24
PRESTON        CLOUDY    33  31  92 NW14      29.47F WCI  23
$$
ABBREVIATIONS USED IN REMARKS
   TC - TEMPERATURES IN CELSIUS
  WCI - WIND CHILL INDEX
   HX - HEAT INDEX
  VSB - VISIBILITY
$$



USA.gov is the U.S. government's official web portal to all federal, state and local government web resources and services.